Vertical_Velocity
-0 -1 -1 -1 -1 -1 -1 -0 -0 0 1 1 1 0 1 1 1 0 -0 -0 -0 -0 -0 -0 -0 -0 -0 -0 -0 -0 -1 -1 -1 -1 -1 -1 -1 -1 -1 -1 -1 -1 -1 -1 -1 -1 -1 -1 -0 -1 -1 -1 -1 -2 -3 -2 -1 -2 -2 -2 -2 -2 -2 -2 -3 -3 -3 -4 -5
-1 -1 -1 -1 -1 -1 -0 -0 -0 -0 0 0 1 1 1 1 1 0 -0 -0 -0 -0 -0 -1 -1 -0 -0 -1 -1 -1 -1 -1 -1 -2 -2 -1 -1 -1 -1 -1 -1 -1 -1 -1 -1 -1 -1 -0 -0 -0 -1 -2 -1 -1 -2 -3 -1 -1 -2 -3 -2 -2 -2 -2 -3 -3 -3 -3 -4
-1 -1 -1 -1 -1 -1 -0 -0 -0 -0 -0 -0 0 0 0 0 0 0 -0 -0 -1 -1 -0 -1 -1 -1 -1 -1 -2 -1 -1 -1 -1 -1 -2 -2 -2 -2 -1 -1 -2 -2 -2 -1 -1 -1 -1 -0 -0 -0 -0 -1 -1 -1 -2 -3 -1 -1 -1 -2 -2 -3 -3 -3 -3 -3 -3 -3 -3
-0 -1 -1 -1 -1 -0 -0 -0 -0 -0 -0 -0 -0 -0 0 0 0 0 -0 -0 -1 -1 -0 -0 -1 -1 -1 -1 -2 -2 -2 -1 -1 -1 -1 -2 -2 -2 -2 -2 -2 -2 -2 -2 -2 -1 -1 -1 -1 -0 -1 -1 -0 -1 -1 -2 -2 -1 -1 -1 -1 -2 -3 -4 -4 -3 -2 -2 -2
-1 -1 -1 -0 -0 -0 0 0 1 0 -0 -0 0 -0 -0 0 0 0 0 -0 -0 -0 -0 -0 -0 -1 -1 -1 -1 -1 -2 -2 -1 -1 -1 -1 -2 -2 -2 -2 -2 -2 -2 -2 -2 -2 -2 -1 -1 -1 -1 -1 -1 -1 -1 -1 -1 -1 -2 -2 -2 -2 -3 -3 -3 -3 -3 -2 -2
-1 -1 -0 -0 0 0 0 1 1 1 1 1 1 0 -0 0 1 1 1 1 0 -0 -0 -0 -0 -0 -1 -1 -1 -1 -1 -2 -2 -1 -1 -1 -2 -2 -2 -2 -2 -2 -2 -2 -2 -2 -2 -1 -2 -2 -2 -0 -1 -2 -2 -1 -2 -2 -2 -2 -2 -2 -2 -5 -3 -3 -3 -4 -2
-1 -1 -0 -0 0 0 1 1 1 1 1 1 1 1 0 0 1 1 1 1 1 -0 -1 -1 -1 -1 -1 -1 -1 -1 -2 -2 -2 -2 -1 -1 -2 -2 -2 -2 -2 -2 -2 -2 -2 -3 -3 -2 -1 -2 -3 -2 -2 -2 -3 -2 -2 -2 -1 -2 -3 -1 -0 -4 -4 -4 -3 -3 -3
-0 -0 -0 -0 0 0 1 1 1 1 1 1 1 1 0 0 1 1 1 1 0 -0 -1 -1 -1 -1 -0 -0 -1 -1 -1 -1 -2 -2 -2 -1 -1 -2 -2 -1 -1 -2 -2 -2 -2 -3 -3 -3 -2 -2 -2 -2 -3 -3 -2 -2 -2 -2 -1 -1 -2 -2 -1 -1 -4 -5 -4 -3 -3
-0 -0 -0 0 0 0 1 1 1 1 1 1 1 1 0 0 0 0 0 0 -0 -0 -0 -1 -1 -1 -1 -1 -1 -1 -1 -1 -1 -2 -2 -2 -1 -1 -2 -2 -1 -2 -3 -3 -2 -2 -3 -3 -3 -3 -3 -2 -2 -3 -3 -1 -2 -2 -2 -1 -1 -2 -3 -2 -3 -4 -5 -3 -3
-0 -0 -0 0 0 0 1 1 1 1 1 1 1 1 1 0 -0 -0 -0 -0 -0 -0 -0 -1 -1 -1 -1 -1 -1 -1 -1 -1 -1 -1 -1 -1 -1 -1 -1 -2 -1 -2 -3 -4 -3 -3 -3 -3 -2 -3 -3 -2 -2 -2 -3 -2 -1 -2 -3 -2 -1 -2 -3 -3 -2 -4 -5 -4 -3
-0 -0 0 0 0 0 1 1 1 1 1 1 1 1 1 -0 -0 -1 -0 -0 -0 -0 -1 -1 -0 -1 -1 -1 -1 -1 -1 -1 -1 -1 -1 -1 -2 -1 -1 -2 -2 -2 -2 -3 -3 -3 -3 -3 -2 -2 -2 -2 -1 -2 -2 -2 -1 -2 -2 -3 -2 -2 -3 -4 -3 -3 -4 -4 -3
-0 0 0 0 0 1 1 1 1 1 1 1 1 0 0 -0 -1 -1 -1 -0 -0 -0 -1 -1 -0 -0 -1 -1 -1 -1 -1 -1 -1 -1 -1 -2 -2 -2 -2 -2 -2 -2 -2 -3 -3 -3 -3 -3 -2 -2 -2 -2 -1 -1 -1 -2 -2 -2 -2 -3 -2 -2 -2 -3 -3 -3 -3 -3 -2
0 0 0 0 1 1 1 1 1 1 1 0 -0 -0 -0 -0 -1 -1 -0 -1 -1 -1 -1 -1 -1 -0 -0 -1 -1 -1 -1 -1 -1 -1 -2 -2 -2 -2 -3 -3 -3 -3 -3 -3 -3 -3 -3 -4 -3 -2 -1 -2 -2 -1 -1 -2 -2 -2 -2 -2 -3 -2 -2 -2 -2 -3 -3 -4 -3
1 1 0 1 1 1 1 1 1 1 1 0 -1 -1 -1 -1 -1 -1 -0 -1 -1 -1 -1 -1 -1 -1 -1 -0 -1 -1 -1 -1 -1 -2 -2 -3 -3 -3 -3 -3 -3 -3 -3 -3 -3 -3 -3 -4 -4 -3 -2 -2 -2 -2 -2 -2 -2 -2 -2 -2 -2 -3 -3 -2 -3 -3 -3 -3 -4
1 1 1 1 1 1 1 1 1 1 1 -0 -1 -1 -0 -0 -1 -1 -1 -1 -1 -1 -1 -1 -2 -2 -2 -1 -1 -1 -1 -2 -2 -2 -3 -3 -3 -3 -3 -3 -3 -3 -3 -3 -3 -3 -3 -3 -4 -4 -3 -3 -2 -2 -2 -2 -2 -2 -2 -2 -2 -3 -3 -4 -4 -4 -4 -4 -3
0 0 1 1 1 1 1 1 1 1 0 -0 -1 -1 -1 -1 -1 -1 -1 -1 -2 -2 -1 -1 -1 -2 -2 -3 -1 -1 -2 -3 -2 -2 -3 -3 -3 -3 -3 -3 -3 -3 -3 -3 -3 -3 -3 -3 -3 -3 -3 -3 -3 -2 -2 -1 -1 -1 -2 -2 -3 -3 -4 -5 -5 -5 -5 -5 -4
0 0 1 1 1 1 1 1 1 0 0 -0 -0 -1 -1 -1 -1 -1 -1 -1 -1 -2 -2 -2 -2 -1 -2 -4 -3 -2 -2 -3 -3 -3 -3 -3 -3 -3 -3 -3 -2 -2 -2 -2 -3 -3 -4 -4 -4 -3 -3 -3 -2 -2 -2 -2 -2 -1 -1 -2 -3 -4 -4 -5 -5 -5 -5 -6 -5
0 0 1 1 1 1 0 0 0 0 -0 -0 -0 -1 -1 -1 -2 -2 -2 -2 -1 -1 -1 -3 -3 -2 -2 -2 -4 -4 -3 -2 -3 -3 -3 -2 -2 -2 -2 -2 -2 -2 -2 -3 -3 -3 -3 -3 -3 -3 -3 -3 -2 -2 -1 -1 -2 -2 -2 -2 -3 -4 -4 -4 -5 -5 -5 -5 -5
0 0 1 1 1 1 1 0 0 -0 -0 -0 -1 -1 -1 -2 -2 -2 -2 -3 -2 -1 -1 -2 -3 -3 -3 -2 -3 -4 -4 -2 -2 -3 -3 -2 -2 -2 -2 -2 -2 -2 -3 -3 -4 -4 -3 -3 -3 -3 -2 -3 -3 -3 -2 -2 -1 -2 -2 -2 -3 -3 -4 -4 -4 -5 -5 -4 -4
0 0 0 1 1 1 0 0 0 -0 -0 -1 -1 -1 -1 -2 -2 -1 -2 -2 -2 -2 -1 -1 -2 -3 -3 -3 -3 -4 -4 -3 -3 -3 -3 -3 -3 -3 -3 -3 -3 -3 -3 -3 -4 -4 -4 -4 -4 -3 -3 -3 -2 -2 -3 -3 -2 -2 -1 -1 -2 -2 -3 -3 -3 -4 -4 -4 -4
1 1 1 1 1 1 0 0 0 -0 -0 -1 -1 -1 -1 -2 -2 -1 -1 -2 -2 -2 -2 -2 -2 -2 -3 -3 -3 -4 -4 -4 -3 -3 -3 -3 -3 -3 -3 -3 -3 -3 -3 -4 -4 -4 -4 -3 -3 -3 -4 -4 -3 -2 -1 -1 -2 -1 -1 -1 -1 -1 -1 -2 -2 -2 -2 -2 -3
1 1 1 1 1 0 0 0 -0 -0 -0 -1 -1 -1 -1 -1 -1 -2 -2 -2 -2 -2 -2 -2 -2 -2 -3 -3 -3 -3 -3 -3 -2 -2 -3 -3 -3 -3 -3 -3 -3 -4 -4 -4 -4 -5 -5 -4 -4 -3 -2 -3 -3 -3 -2 -1 -1 -1 -1 -1 -0 -0 -0 -0 -1 -2 -2 -1 -0
1 1 1 1 1 0 0 -0 -0 -0 -0 -1 -1 -1 -1 -1 -2 -2 -2 -2 -2 -2 -2 -2 -2 -2 -2 -3 -2 -2 -2 -3 -2 -2 -2 -2 -3 -3 -3 -3 -3 -4 -4 -4 -4 -5 -5 -5 -6 -5 -4 -2 -2 -2 -2 -2 -2 -2 -2 -1 -1 -0 -0 0 0 -1 -2 -2 -1
1 0 0 0 0 0 0 -0 -0 -1 -1 -1 -1 -1 -1 -2 -2 -2 -2 -3 -2 -2 -2 -3 -3 -2 -2 -3 -2 -2 -2 -2 -2 -2 -2 -2 -2 -2 -3 -3 -3 -3 -3 -4 -4 -4 -5 -4 -5 -5 -6 -5 -4 -3 -2 -1 -1 -2 -3 -3 -1 -1 -1 -1 1 1 0 -2 -2
0 0 0 0 0 -0 -0 -0 -0 -1 -1 -1 -1 -1 -2 -2 -2 -2 -2 -3 -3 -3 -2 -3 -3 -3 -2 -2 -2 -2 -2 -2 -2 -2 -2 -2 -2 -1 -2 -2 -2 -3 -3 -3 -4 -4 -5 -5 -5 -6 -6 -6 -6 -5 -5 -5 -3 -2 -2 -4 -3 -2 -2 -2 -1 1 2 2 -0
0 0 0 0 0 -0 -0 -0 -0 -1 -1 -1 -2 -2 -2 -2 -2 -2 -2 -2 -2 -3 -2 -2 -3 -2 -2 -2 -2 -3 -3 -2 -2 -2 -2 -2 -2 -2 -1 -1 -2 -2 -3 -4 -4 -4 -4 -5 -6 -7 -7 -8 -8 -6 -6 -6 -6 -4 -3 -3 -4 -3 -2 -2 -2 -1 -0 1 2
0 0 -0 -0 0 -0 -0 -0 -0 -1 -1 -2 -2 -2 -2 -2 -2 -2 -2 -2 -2 -2 -2 -2 -2 -2 -2 -2 -2 -2 -3 -3 -3 -2 -2 -1 -1 -1 -1 -2 -2 -3 -3 -4 -4 -4 -4 -5 -5 -6 -8 -8 -9 -8 -6 -5 -5 -4 -3 -2 -3 -3 -3 -2 -1 -1 -1 -1 -0
-0 -0 -0 -0 -0 -0 -0 -1 -1 -1 -1 -1 -1 -1 -1 -2 -2 -2 -2 -2 -2 -2 -2 -2 -2 -1 -2 -2 -2 -2 -2 -2 -2 -2 -2 -2 -1 -1 -1 -1 -2 -3 -4 -4 -5 -5 -4 -5 -6 -6 -7 -8 -8 -8 -6 -5 -4 -4 -3 -2 -2 -2 -3 -4 -3 -2 -1 -1 -2
-0 -0 -0 -0 -0 -1 -1 -1 -1 -1 -1 -1 -1 -1 -1 -1 -2 -2 -2 -2 -2 -2 -2 -2 -2 -2 -2 -2 -2 -2 -2 -2 -2 -2 -2 -2 -2 -2 -2 -2 -3 -3 -4 -4 -5 -5 -5 -5 -6 -6 -7 -7 -7 -7 -6 -5 -4 -3 -3 -3 -3 -2 -3 -4 -4 -3 -3 -2 -2
-0 -0 -0 -0 -1 -1 -1 -1 -1 -1 -1 -1 -1 -1 -1 -2 -2 -2 -2 -1 -1 -1 -1 -1 -2 -2 -2 -2 -2 -2 -2 -2 -2 -2 -2 -2 -2 -2 -2 -3 -3 -4 -4 -4 -5 -6 -6 -5 -6 -6 -6 -6 -6 -6 -5 -4 -4 -4 -3 -3 -4 -4 -3 -3 -3 -3 -4 -4 -3
-0 -0 -0 -0 -1 -1 -1 -1 -1 -1 -1 -1 -1 -1 -1 -2 -2 -2 -2 -1 -1 -1 -1 -1 -1 -1 -1 -1 -1 -1 -2 -2 -2 -2 -2 -2 -3 -3 -2 -1 -3 -4 -5 -5 -5 -6 -6 -6 -6 -6 -6 -6 -5 -5 -5 -4 -4 -4 -4 -3 -3 -3 -4 -3 -2 -2 -2 -3 -4
-0 -0 -0 -0 -1 -1 -1 -1 -1 -1 -1 -1 -1 -1 -2 -2 -1 -1 -1 -1 -1 -1 -1 -2 -2 -2 -2 -2 -2 -1 -1 -1 -2 -3 -3 -2 -3 -3 -3 -3 -3 -4 -5 -6 -6 -6 -6 -6 -6 -6 -6 -5 -5 -4 -4 -4 -3 -3 -3 -4 -2 -2 -3 -4 -3 -2 -2 -2 -2
-0 -0 -0 -0 -1 -1 -1 -1 -1 -1 -1 -2 -2 -1 -1 -2 -2 -2 -1 -1 -1 -1 -1 -2 -2 -2 -2 -2 -2 -2 -2 -1 -1 -3 -4 -4 -2 -2 -2 -3 -3 -4 -5 -6 -7 -6 -6 -6 -6 -6 -6 -5 -5 -4 -4 -3 -2 -1 -1 -2 -2 -1 -1 -2 -3 -2 -2 -2 -2
-0 -0 -0 -1 -1 -1 -1 -1 -1 -1 -1 -2 -2 -2 -1 -1 -2 -2 -2 -1 -1 -1 -1 -1 -1 -1 -1 -1 -1 -1 -2 -3 -3 -2 -3 -4 -3 -2 -2 -2 -4 -4 -5 -5 -6 -6 -6 -6 -6 -6 -6 -5 -4 -4 -3 -3 -3 -2 -1 -1 -1 -1 -0 -0 -1 -1 -1 -1 -2
-0 -0 -1 -1 -1 -1 -1 -1 -2 -2 -1 -1 -2 -2 -2 -1 -1 -1 -2 -1 -1 -1 -2 -2 -2 -1 -2 -2 -2 -2 -2 -3 -4 -4 -3 -2 -3 -3 -2 -2 -3 -5 -5 -5 -5 -5 -5 -6 -5 -5 -6 -6 -4 -3 -2 -3 -2 -2 -1 -1 -1 -0 0 -0 0 1 1 0 -1
-0 -0 -0 -1 -1 -1 -2 -2 -2 -2 -1 -1 -1 -2 -2 -2 -2 -2 -2 -2 -1 -1 -1 -2 -2 -2 -2 -3 -3 -4 -3 -3 -3 -4 -4 -3 -2 -3 -3 -3 -2 -2 -4 -5 -4 -4 -4 -6 -6 -5 -5 -6 -5 -3 -2 -1 -1 -1 -1 -2 -1 -0 0 -0 -0 0 1 1 -0
0 0 -0 -1 -2 -2 -2 -2 -1 -1 -1 -1 -1 -1 -1 -2 -2 -2 -2 -2 -1 -1 -1 -1 -1 -2 -2 -2 -2 -2 -3 -3 -3 -3 -4 -4 -3 -3 -3 -4 -3 -1 -1 -3 -4 -4 -4 -5 -6 -6 -5 -5 -6 -5 -3 -2 -2 -1 -0 -1 -1 0 1 0 -1 -0 1 1 -0
-0 -0 -0 -1 -2 -2 -2 -2 -1 -1 -1 -1 -1 -1 -1 -1 -1 -2 -2 -2 -1 -1 -1 -1 -1 -2 -2 -1 -1 -1 -1 -2 -2 -3 -4 -5 -4 -4 -3 -4 -4 -2 -1 -2 -4 -4 -3 -4 -6 -6 -6 -4 -5 -5 -4 -3 -2 -1 -0 -1 -1 -0 1 2 -1 -1 -0 2 0
-0 -0 -1 -1 -2 -2 -2 -1 -1 -1 -1 -1 -1 -1 -1 -1 -1 -1 -2 -2 -1 -1 -1 -1 -1 -2 -2 -2 -1 -1 -1 -1 -2 -2 -3 -4 -4 -4 -3 -3 -3 -2 -1 -1 -4 -5 -4 -2 -5 -6 -6 -5 -4 -4 -4 -3 -3 -2 -0 -0 -2 -1 0 3 1 -1 -2 1 2
-0 -1 -1 -1 -1 -1 -1 -1 -1 -0 -0 -0 -1 -1 -1 -1 -1 -1 -1 -2 -2 -2 -1 -1 -1 -2 -2 -2 -2 -1 -1 -1 -2 -2 -2 -3 -4 -3 -3 -3 -4 -4 -2 -0 -3 -5 -6 -3 -4 -5 -6 -6 -5 -4 -3 -3 -4 -3 -1 0 -1 -2 -2 1 2 1 -1 -1 1
-1 -1 -1 -1 -1 -0 -0 -0 -0 -0 -1 -0 -1 -1 -1 -0 -0 -1 -1 -2 -2 -2 -2 -2 -2 -2 -3 -3 -3 -2 -2 -2 -2 -2 -2 -2 -3 -4 -3 -2 -3 -5 -5 -3 -1 -4 -7 -6 -4 -4 -5 -5 -5 -5 -4 -2 -4 -4 -2 -0 -0 -1 -1 -2 0 2 2 -0 -1
Height
5734 5734 5733 5732 5731 5730 5729 5729 5728 5727 5726 5725 5724 5723 5722 5721 5720 5718 5717 5715 5714 5713 5711 5710 5708 5707 5705 5703 5702 5700 5698 5696 5694 5693 5691 5689 5687 5684 5682 5680 5678 5676 5674 5671 5669 5667 5664 5662 5659 5657 5654 5651 5649 5646 5643 5640 5638 5635 5632 5629 5626 5624 5620 5618 5614 5611 5608 5605 5602
5732 5731 5730 5729 5729 5728 5727 5726 5725 5724 5724 5723 5722 5720 5719 5718 5717 5716 5714 5713 5711 5710 5708 5707 5705 5703 5702 5700 5698 5696 5694 5693 5691 5689 5687 5685 5683 5681 5679 5676 5674 5672 5669 5667 5665 5663 5660 5658 5655 5652 5649 5647 5644 5641 5639 5635 5633 5630 5627 5624 5621 5618 5615 5612 5609 5606 5603 5599 5596
5730 5729 5728 5727 5726 5726 5725 5724 5723 5722 5721 5720 5719 5718 5717 5715 5714 5713 5711 5710 5708 5707 5705 5704 5702 5700 5698 5696 5695 5693 5691 5689 5687 5685 5683 5681 5679 5677 5674 5672 5670 5668 5665 5663 5660 5658 5655 5653 5650 5648 5645 5642 5639 5637 5634 5631 5628 5625 5622 5619 5615 5612 5609 5606 5603 5600 5597 5594 5590
5728 5727 5726 5725 5724 5724 5723 5722 5721 5720 5719 5718 5716 5715 5714 5713 5711 5710 5709 5707 5705 5704 5702 5700 5699 5697 5695 5693 5691 5689 5688 5686 5684 5682 5679 5677 5675 5673 5670 5668 5666 5663 5661 5659 5656 5654 5651 5648 5646 5643 5640 5637 5634 5631 5629 5625 5623 5619 5616 5613 5610 5607 5604 5600 5597 5594 5591 5588 5584
5725 5724 5724 5723 5722 5721 5720 5719 5719 5717 5716 5715 5714 5713 5711 5710 5709 5707 5706 5704 5703 5701 5699 5697 5696 5694 5692 5690 5688 5686 5684 5682 5680 5678 5676 5673 5671 5669 5666 5664 5661 5659 5656 5654 5651 5649 5646 5644 5641 5638 5635 5632 5629 5626 5623 5620 5617 5614 5611 5608 5604 5601 5598 5594 5591 5588 5585 5582 5578
5723 5722 5721 5720 5720 5719 5718 5717 5716 5715 5714 5713 5711 5710 5709 5708 5706 5704 5703 5701 5700 5698 5696 5694 5693 5691 5689 5687 5685 5683 5681 5679 5676 5674 5672 5669 5667 5665 5662 5659 5657 5654 5652 5649 5647 5644 5641 5639 5636 5633 5630 5627 5624 5621 5618 5615 5612 5609 5605 5602 5599 5595 5592 5589 5585 5582 5579 5576 5573
5721 5720 5719 5718 5718 5717 5716 5715 5714 5713 5711 5710 5709 5708 5706 5705 5703 5702 5700 5699 5697 5695 5693 5691 5690 5688 5686 5684 5682 5679 5677 5675 5673 5670 5668 5665 5663 5660 5658 5655 5653 5650 5647 5644 5642 5639 5636 5634 5631 5628 5625 5622 5619 5616 5613 5609 5606 5603 5600 5597 5593 5590 5587 5583 5580 5576 5574 5571 5567
5719 5718 5717 5716 5715 5714 5713 5712 5711 5710 5709 5708 5706 5705 5704 5702 5700 5699 5697 5696 5694 5692 5690 5688 5686 5684 5683 5680 5678 5676 5674 5671 5669 5666 5664 5661 5659 5656 5654 5651 5648 5645 5643 5640 5637 5634 5631 5629 5626 5623 5620 5617 5614 5611 5607 5604 5601 5598 5595 5592 5588 5585 5581 5578 5574 5571 5568 5565 5562
5717 5716 5715 5714 5713 5712 5711 5710 5709 5708 5706 5705 5704 5702 5701 5699 5698 5696 5694 5693 5691 5689 5687 5685 5683 5681 5679 5677 5674 5672 5670 5667 5665 5662 5660 5657 5654 5652 5649 5646 5644 5641 5638 5635 5632 5629 5627 5624 5621 5618 5615 5612 5609 5605 5602 5599 5596 5593 5589 5586 5583 5580 5576 5572 5569 5565 5562 5559 5555
5714 5714 5713 5712 5711 5709 5709 5707 5706 5705 5704 5703 5701 5699 5698 5696 5694 5693 5691 5689 5688 5686 5684 5682 5679 5677 5675 5673 5670 5668 5666 5663 5661 5658 5655 5653 5650 5647 5644 5642 5639 5636 5633 5630 5628 5625 5622 5619 5616 5613 5610 5607 5604 5600 5597 5594 5591 5588 5584 5581 5578 5574 5571 5567 5564 5560 5556 5553 5549
5712 5711 5710 5709 5708 5707 5706 5705 5704 5703 5701 5700 5698 5697 5695 5693 5692 5690 5688 5686 5684 5682 5680 5678 5676 5674 5671 5669 5667 5664 5662 5659 5656 5654 5651 5649 5646 5643 5640 5637 5634 5632 5629 5626 5623 5620 5617 5614 5611 5608 5605 5602 5599 5595 5592 5589 5586 5583 5579 5576 5573 5569 5566 5562 5558 5554 5550 5547 5543
5710 5709 5708 5707 5706 5705 5704 5703 5701 5700 5698 5697 5695 5694 5692 5690 5689 5687 5685 5683 5681 5679 5677 5674 5672 5670 5667 5665 5663 5660 5658 5655 5652 5649 5647 5644 5641 5638 5635 5633 5630 5627 5624 5621 5618 5615 5612 5609 5606 5603 5600 5597 5594 5591 5587 5584 5581 5578 5574 5571 5567 5564 5560 5556 5552 5549 5544 5541 5537
5708 5707 5706 5705 5704 5702 5701 5700 5699 5697 5696 5694 5692 5691 5689 5687 5685 5684 5681 5679 5677 5675 5673 5671 5668 5666 5664 5661 5659 5656 5653 5651 5648 5645 5642 5639 5637 5634 5631 5628 5625 5622 5619 5616 5613 5609 5606 5604 5601 5598 5595 5592 5589 5586 5583 5579 5576 5572 5569 5566 5562 5558 5554 5551 5547 5543 5539 5534 5530
5705 5704 5704 5702 5701 5700 5699 5697 5696 5694 5693 5691 5689 5688 5686 5684 5682 5680 5678 5676 5674 5671 5669 5667 5664 5662 5659 5657 5654 5652 5649 5646 5644 5641 5638 5635 5632 5629 5626 5623 5620 5617 5614 5611 5608 5604 5602 5599 5596 5593 5590 5588 5584 5581 5578 5574 5571 5567 5564 5560 5556 5553 5549 5544 5540 5536 5532 5528 5524
5703 5702 5701 5700 5699 5697 5696 5695 5693 5692 5690 5688 5687 5685 5683 5681 5679 5677 5674 5672 5670 5668 5665 5663 5660 5658 5655 5653 5650 5647 5644 5642 5639 5636 5633 5630 5627 5624 5621 5618 5615 5612 5609 5606 5603 5600 5597 5594 5591 5588 5585 5583 5579 5576 5573 5569 5566 5562 5558 5554 5550 5546 5542 5538 5534 5529 5525 5521 5517
5701 5700 5699 5697 5696 5695 5694 5692 5690 5689 5687 5685 5684 5682 5679 5677 5675 5673 5671 5669 5666 5664 5661 5659 5656 5654 5651 5649 5646 5643 5640 5637 5634 5632 5629 5625 5623 5619 5616 5613 5610 5607 5604 5601 5598 5595 5592 5589 5586 5584 5580 5578 5574 5571 5568 5564 5560 5557 5553 5548 5544 5540 5536 5531 5527 5522 5518 5514 5509
5698 5697 5696 5695 5694 5692 5691 5689 5688 5686 5684 5682 5680 5678 5676 5674 5672 5669 5667 5665 5663 5660 5657 5655 5652 5650 5647 5644 5641 5639 5636 5633 5630 5627 5624 5621 5618 5615 5612 5609 5606 5603 5600 5597 5594 5591 5588 5585 5582 5579 5576 5573 5569 5566 5563 5559 5555 5551 5547 5543 5538 5534 5529 5524 5520 5515 5510 5506 5501
5696 5694 5693 5692 5691 5689 5688 5686 5684 5683 5681 5679 5677 5675 5673 5670 5668 5666 5663 5661 5659 5656 5653 5650 5648 5645 5643 5640 5637 5634 5631 5628 5625 5622 5619 5616 5613 5610 5607 5604 5601 5598 5595 5592 5589 5586 5584 5580 5577 5574 5571 5568 5564 5561 5557 5554 5549 5545 5541 5537 5532 5527 5523 5518 5513 5508 5503 5499 5494
5693 5692 5691 5689 5688 5686 5685 5683 5681 5679 5678 5675 5674 5671 5669 5667 5664 5662 5659 5657 5654 5652 5649 5646 5644 5641 5638 5635 5633 5629 5626 5624 5621 5618 5614 5612 5609 5605 5603 5600 5597 5594 5591 5588 5584 5582 5579 5576 5573 5569 5566 5563 5559 5556 5552 5548 5544 5540 5535 5531 5526 5521 5516 5511 5506 5501 5496 5491 5486
5690 5689 5688 5686 5685 5684 5682 5680 5678 5676 5674 5672 5670 5668 5665 5663 5660 5658 5655 5653 5650 5648 5645 5643 5640 5637 5634 5631 5628 5625 5622 5619 5616 5613 5610 5607 5604 5601 5598 5595 5592 5589 5586 5583 5580 5577 5574 5570 5567 5564 5561 5558 5554 5550 5547 5543 5539 5534 5530 5525 5520 5515 5510 5504 5499 5494 5488 5483 5478
5688 5686 5685 5684 5682 5680 5679 5677 5675 5673 5671 5669 5666 5664 5661 5659 5656 5654 5651 5649 5646 5644 5641 5638 5635 5633 5630 5627 5624 5621 5618 5614 5612 5609 5605 5603 5599 5597 5594 5591 5588 5584 5581 5578 5575 5572 5569 5565 5562 5559 5556 5552 5549 5545 5541 5537 5533 5529 5524 5519 5514 5509 5503 5498 5492 5486 5481 5475 5470
5685 5683 5682 5680 5679 5677 5675 5673 5671 5669 5667 5665 5662 5660 5658 5655 5653 5650 5648 5645 5642 5640 5637 5634 5631 5628 5625 5622 5619 5616 5613 5610 5607 5604 5601 5598 5595 5592 5589 5586 5583 5580 5577 5573 5570 5567 5564 5560 5557 5554 5551 5547 5544 5539 5535 5531 5527 5522 5518 5513 5507 5502 5496 5490 5485 5479 5473 5468 5463
5682 5680 5679 5677 5675 5674 5672 5670 5668 5666 5663 5661 5659 5656 5654 5651 5649 5646 5644 5641 5638 5636 5633 5630 5627 5624 5621 5618 5615 5612 5609 5606 5603 5600 5597 5594 5591 5588 5584 5581 5579 5575 5572 5569 5565 5562 5559 5555 5552 5549 5545 5542 5538 5534 5529 5525 5520 5515 5510 5505 5500 5494 5489 5483 5477 5472 5466 5461 5455
5679 5677 5675 5674 5672 5670 5669 5666 5664 5662 5659 5657 5655 5652 5650 5647 5645 5642 5639 5637 5634 5631 5629 5626 5623 5620 5617 5614 5611 5608 5605 5602 5599 5596 5593 5590 5587 5584 5580 5577 5574 5571 5567 5564 5560 5557 5553 5549 5546 5542 5539 5535 5531 5527 5523 5518 5513 5508 5502 5497 5492 5486 5481 5475 5470 5464 5459 5454 5449
5675 5674 5672 5671 5669 5667 5665 5663 5660 5658 5656 5653 5651 5649 5646 5644 5641 5638 5636 5633 5630 5627 5624 5621 5618 5615 5613 5609 5606 5604 5601 5598 5595 5592 5589 5586 5583 5580 5576 5573 5570 5566 5563 5559 5555 5552 5548 5544 5539 5535 5532 5528 5524 5519 5515 5510 5505 5500 5494 5489 5484 5478 5473 5468 5463 5457 5452 5447 5442
5672 5671 5669 5667 5665 5664 5661 5659 5657 5654 5652 5649 5647 5644 5642 5640 5637 5634 5632 5629 5626 5623 5620 5617 5614 5611 5608 5605 5602 5599 5596 5594 5591 5588 5585 5582 5579 5575 5572 5569 5565 5562 5558 5554 5550 5546 5542 5538 5533 5529 5524 5520 5516 5512 5508 5503 5497 5492 5486 5481 5475 5470 5465 5460 5455 5450 5445 5439 5435
5669 5668 5666 5664 5662 5660 5658 5655 5653 5651 5648 5646 5644 5641 5638 5636 5633 5630 5628 5625 5622 5619 5616 5613 5610 5607 5604 5601 5599 5596 5593 5589 5587 5584 5581 5578 5575 5571 5568 5564 5560 5557 5553 5549 5545 5540 5536 5532 5527 5523 5518 5513 5509 5504 5500 5495 5489 5484 5478 5473 5467 5462 5457 5452 5447 5443 5438 5433 5428
5666 5664 5662 5660 5658 5656 5654 5652 5649 5647 5644 5642 5640 5637 5634 5632 5629 5627 5624 5621 5618 5615 5612 5609 5606 5603 5600 5597 5594 5592 5589 5586 5583 5579 5577 5574 5570 5567 5563 5559 5555 5551 5547 5543 5539 5535 5530 5526 5521 5517 5511 5506 5501 5497 5492 5487 5482 5476 5471 5465 5459 5454 5449 5444 5439 5435 5431 5427 5422
5663 5661 5659 5657 5655 5653 5650 5648 5646 5643 5641 5639 5636 5634 5631 5628 5625 5623 5620 5617 5614 5611 5608 5605 5602 5599 5596 5594 5591 5588 5585 5582 5579 5575 5572 5569 5566 5562 5559 5554 5550 5546 5542 5538 5533 5529 5524 5520 5515 5510 5505 5500 5494 5489 5484 5479 5474 5469 5463 5457 5452 5447 5442 5437 5432 5428 5424 5420 5416
5659 5657 5655 5653 5651 5649 5647 5644 5642 5639 5637 5635 5632 5630 5627 5624 5621 5619 5616 5613 5610 5607 5604 5601 5598 5595 5593 5590 5587 5584 5581 5578 5574 5571 5568 5565 5561 5557 5554 5549 5545 5541 5536 5532 5528 5523 5519 5514 5509 5504 5499 5493 5488 5482 5477 5472 5466 5461 5455 5450 5444 5439 5434 5430 5426 5421 5418 5414 5410
5656 5654 5652 5650 5648 5645 5643 5641 5638 5636 5634 5631 5629 5626 5623 5620 5618 5615 5612 5609 5606 5603 5600 5598 5595 5592 5589 5586 5583 5580 5577 5574 5570 5567 5564 5560 5557 5553 5549 5544 5540 5535 5531 5526 5522 5517 5513 5508 5503 5497 5492 5487 5481 5475 5470 5464 5459 5454 5449 5443 5438 5433 5428 5424 5419 5416 5412 5408 5405
5652 5650 5648 5646 5644 5642 5639 5637 5634 5632 5630 5627 5625 5622 5619 5616 5614 5611 5608 5605 5602 5599 5596 5594 5591 5588 5585 5582 5579 5576 5573 5570 5566 5562 5559 5555 5552 5548 5544 5539 5534 5530 5525 5520 5516 5511 5506 5501 5496 5491 5485 5480 5474 5469 5464 5458 5453 5447 5442 5437 5432 5427 5423 5419 5414 5410 5407 5403 5399
5649 5647 5645 5643 5640 5638 5636 5634 5631 5629 5626 5624 5621 5618 5615 5612 5609 5607 5604 5601 5599 5596 5593 5590 5587 5584 5581 5579 5575 5572 5569 5565 5562 5558 5554 5550 5546 5543 5538 5534 5529 5524 5519 5514 5510 5505 5500 5494 5489 5484 5479 5473 5468 5462 5457 5452 5446 5441 5436 5431 5427 5422 5418 5414 5410 5406 5402 5399 5395
5645 5644 5641 5639 5637 5634 5632 5630 5627 5625 5622 5620 5617 5614 5611 5609 5606 5603 5600 5598 5595 5592 5589 5586 5584 5581 5578 5574 5571 5568 5564 5560 5557 5553 5549 5545 5541 5537 5533 5529 5524 5519 5514 5509 5504 5499 5493 5488 5483 5477 5472 5467 5461 5456 5451 5446 5440 5435 5430 5426 5421 5417 5413 5409 5405 5401 5398 5394 5391
5642 5640 5638 5636 5634 5631 5629 5626 5624 5621 5619 5616 5613 5610 5608 5605 5602 5599 5597 5594 5591 5589 5586 5583 5579 5577 5574 5570 5567 5563 5560 5556 5552 5548 5544 5541 5537 5532 5528 5523 5518 5513 5508 5503 5497 5492 5487 5482 5476 5470 5465 5460 5455 5449 5445 5440 5435 5430 5425 5421 5416 5412 5409 5405 5401 5397 5394 5390 5387
5639 5637 5634 5632 5630 5628 5625 5623 5620 5618 5615 5612 5609 5607 5604 5601 5598 5596 5593 5590 5588 5585 5582 5579 5576 5573 5569 5566 5563 5559 5555 5551 5548 5544 5539 5535 5532 5527 5523 5518 5513 5508 5503 5497 5491 5486 5480 5475 5469 5464 5459 5453 5448 5443 5438 5434 5429 5425 5420 5416 5412 5408 5404 5401 5397 5393 5389 5386 5382
5635 5633 5631 5629 5626 5624 5622 5619 5617 5614 5611 5608 5606 5603 5600 5597 5595 5592 5589 5587 5584 5582 5579 5576 5572 5569 5565 5562 5559 5554 5550 5546 5543 5539 5534 5530 5526 5522 5517 5512 5507 5502 5497 5492 5486 5480 5474 5469 5463 5457 5452 5446 5442 5437 5432 5428 5423 5419 5415 5411 5408 5404 5400 5396 5393 5389 5385 5381 5378
5632 5630 5628 5625 5623 5620 5618 5615 5613 5610 5607 5604 5602 5599 5597 5594 5591 5589 5586 5583 5581 5578 5575 5572 5569 5565 5562 5558 5554 5550 5546 5542 5538 5533 5529 5524 5520 5515 5511 5507 5501 5496 5491 5486 5480 5474 5468 5462 5456 5450 5445 5440 5435 5431 5426 5422 5418 5414 5410 5407 5403 5399 5395 5392 5389 5385 5381 5378 5374
5629 5626 5624 5622 5619 5617 5614 5611 5609 5606 5604 5601 5598 5595 5593 5591 5588 5585 5582 5579 5577 5574 5571 5568 5564 5561 5557 5554 5550 5546 5541 5537 5532 5528 5524 5519 5514 5509 5505 5501 5496 5490 5485 5480 5474 5468 5461 5455 5449 5444 5439 5433 5429 5424 5420 5416 5413 5409 5405 5401 5399 5395 5391 5387 5384 5381 5378 5374 5370
5625 5623 5620 5618 5615 5613 5610 5608 5605 5602 5600 5597 5595 5592 5590 5587 5584 5582 5579 5576 5573 5570 5567 5564 5560 5556 5552 5549 5545 5541 5537 5532 5527 5523 5518 5514 5509 5504 5499 5495 5490 5484 5479 5474 5468 5462 5455 5449 5443 5438 5432 5427 5423 5418 5414 5411 5407 5404 5400 5396 5394 5390 5387 5383 5380 5377 5374 5370 5366
5621 5619 5617 5614 5612 5609 5607 5604 5601 5599 5596 5594 5591 5589 5586 5584 5581 5578 5575 5572 5569 5566 5563 5559 5555 5551 5548 5544 5540 5536 5532 5527 5522 5518 5513 5508 5503 5498 5493 5489 5484 5479 5473 5467 5461 5456 5450 5444 5437 5432 5426 5421 5417 5412 5408 5405 5402 5399 5395 5391 5389 5386 5383 5379 5376 5372 5369 5366 5363